Location: Eurasberg
(48.3353°N, 11.0839°E)
Time: 14:11:16
(UTC+00:00)

Timation 1 Rocket - Pass Details

Date: 20 April 2026
Orbit: 895 x 908 km, 70.0° (Epoch: 14 May)

Event Time Altitude Azimuth Distance (km) Brightness Sun altitude
Exits shadow 03:00:47 - 286° (WNW) 3,386 7.0 -12.1°
Reaches altitude 10° 03:04:30 10° 313° (NW) 2,601 6.6 -11.6°
Maximum altitude 03:06:58 12° 337° (NNW) 2,425 6.7 -11.3°
Drops below altitude 10° 03:09:25 10° 1° (N) 2,604 7.2 -10.9°
Sets 03:13:44 0° 31° (NNE) 3,547 8.6 -10.3°
